STARLINK-1653 (46352 NORAD) Tracking and Keplerian Element Data

This shows tracking and keplerian element data for the satellite.

Feedback or suggestion? Click here.




ElementValue
Catalog46352
NameSTARLINK-1653
Epoch Orbit178
Epoch Day268.91668981
Epoch Year2020
RAAN324.508
Inclination53.0008
Eccentricity0.0001256
Argument of Perigee58.2225
Mean Anonmoly144.2453
Mean Motion15.62780219
Decay Rate-9.198E-05
L11 46352U 20062AD 20268.91668981 -.00009198 00000-0 -94628-4 0 9998
L22 46352 53.0008 324.5080 0001256 58.2225 144.2453 15.62780219 1788

Live tracking and technical data element details for STARLINK-1653 (NORAD 46352). STARLINK-1653 can be tracked NOW for your location showing map with azimuth and elevation plus other details from your city location.

Track the satellite on the map from your city or location and see movement details for azimuth, elevation, latitude, longitude, range, height, and movement on the map or in text.







IsCatalogInMostPopularTable: catalog: 46352, numindb: 1
Update: records affected: 1



GetName: 46352 STARLINK-1653

Hit Count: updated at: Mon, 28 Sep 2020 21:54:02 GMT